| time (UTC) | temp F | wind direction | speed MPH | gust MPH | rain 1hr in | rain 24hr in | rain mn in | humidity % | barometer mb |
| 20260502170503 | 68 | 29 | 2.0 | 6.0 | 0.00 | 0.00 | 0.00 | 60 | 1024.9 |
| 20260502170401 | 68 | 26 | 4.0 | 6.0 | 0.00 | 0.00 | 0.00 | 60 | 1020.3 |
| 20260502164348 | 67 | 5 | 1.0 | 2.0 | 0.00 | 0.00 | 0.00 | 61 | 1020.2 |
| 20260502164004 | 67 | 289 | 1.0 | 3.0 | 0.00 | 0.00 | 0.00 | 65 | 1024.6 |
| 20260502163843 | 67 | 230 | 0.0 | 0.0 | 0.00 | 0.00 | 0.00 | 65 | 1020.0 |
| 20260502163503 | 66 | 92 | 0.0 | 3.0 | 0.00 | 0.00 | 0.00 | 66 | 1024.5 |
| 20260502163340 | 66 | 141 | 0.0 | 1.0 | 0.00 | 0.00 | 0.00 | 65 | 1019.9 |
| 20260502163004 | 66 | 4 | 2.0 | 7.0 | 0.00 | 0.00 | 0.00 | 66 | 1024.5 |
| 20260502162838 | 66 | 316 | 1.0 | 2.0 | 0.00 | 0.00 | 0.00 | 66 | 1020.0 |
| 20260502162334 | 66 | 337 | 0.0 | 1.0 | 0.00 | 0.00 | 0.00 | 66 | 1020.0 |
| 20260502161832 | 66 | 32 | 3.0 | 3.0 | 0.00 | 0.00 | 0.00 | 67 | 1020.1 |
| 20260502161503 | 66 | 29 | 2.0 | 5.0 | 0.00 | 0.00 | 0.00 | 68 | 1024.6 |
| 20260502161327 | 66 | 34 | 4.0 | 5.0 | 0.00 | 0.00 | 0.00 | 68 | 1020.1 |
| 20260502161003 | 66 | 314 | 1.0 | 2.0 | 0.00 | 0.00 | 0.00 | 66 | 1024.6 |
| 20260502160826 | 66 | 47 | 2.0 | 2.0 | 0.00 | 0.00 | 0.00 | 68 | 1020.2 |
| 20260502160503 | 66 | 156 | 1.0 | 2.0 | 0.00 | 0.00 | 0.00 | 72 | 1024.6 |
| 20260502160324 | 66 | 144 | 0.0 | 0.0 | 0.00 | 0.00 | 0.00 | 70 | 1020.1 |
| 20260502152259 | 62 | 29 | 0.0 | 0.0 | 0.00 | 0.00 | 0.00 | 76 | 1020.2 |
| 20260502151756 | 62 | 29 | 4.0 | 6.0 | 0.00 | 0.00 | 0.00 | 75 | 1020.1 |
| 20260502151504 | 63 | 32 | 1.0 | 2.0 | 0.00 | 0.00 | 0.00 | 79 | 1024.6 |
| 20260502151253 | 63 | 21 | 1.0 | 2.0 | 0.00 | 0.00 | 0.00 | 80 | 1020.2 |
| 20260502151004 | 62 | 5 | 1.0 | 2.0 | 0.00 | 0.00 | 0.00 | 83 | 1024.4 |
| 20260502150752 | 62 | 271 | 0.0 | 0.0 | 0.00 | 0.00 | 0.00 | 83 | 1020.1 |
| 20260502150504 | 62 | 203 | 0.0 | 3.0 | 0.00 | 0.00 | 0.00 | 83 | 1024.6 |
| 20260502150247 | 62 | 230 | 1.0 | 1.0 | 0.00 | 0.00 | 0.00 | 82 | 1020.1 |
| 20260502130636 | 53 | 6 | 0.0 | 0.0 | 0.00 | 0.00 | 0.00 | 99 | 1019.2 |
| 20260502130503 | 53 | 89 | 0.0 | 1.0 | 0.00 | 0.00 | 0.00 | 99 | 1023.4 |
| 20260502130134 | 53 | 226 | 0.0 | 0.0 | 0.00 | 0.00 | 0.00 | 99 | 1018.7 |
| 20260502123620 | 52 | 233 | 0.0 | 0.0 | 0.00 | 0.00 | 0.00 | 99 | 1018.4 |
| 20260502123503 | 52 | 236 | 0.0 | 0.0 | 0.00 | 0.00 | 0.00 | 99 | 1023.0 |
| 20260502123116 | 52 | 241 | 0.0 | 0.0 | 0.00 | 0.00 | 0.00 | 99 | 1018.1 |
| 20260502123003 | 52 | 233 | 0.0 | 0.0 | 0.00 | 0.00 | 0.00 | 99 | 1022.7 |
| 20260502122613 | 52 | 266 | 0.0 | 0.0 | 0.00 | 0.00 | 0.00 | 99 | 1018.0 |
| 20260502122109 | 51 | 241 | 0.0 | 0.0 | 0.00 | 0.00 | 0.00 | 99 | 1018.1 |
| 20260502121607 | 51 | 242 | 0.0 | 0.0 | 0.00 | 0.00 | 0.00 | 99 | 1017.7 |
| 20260502121504 | 51 | 241 | 0.0 | 0.0 | 0.00 | 0.00 | 0.00 | 99 | 1022.5 |
| 20260502121105 | 51 | 235 | 0.0 | 0.0 | 0.00 | 0.00 | 0.00 | 99 | 1017.9 |
| 20260502120600 | 51 | 235 | 0.0 | 0.0 | 0.00 | 0.00 | 0.00 | 99 | 1017.8 |
| 20260502120504 | 51 | 234 | 0.0 | 0.0 | 0.00 | 0.00 | 0.00 | 99 | 1022.3 |
| 20260502115556 | 51 | 235 | 0.0 | 0.0 | 0.00 | 0.00 | 0.00 | 99 | 1017.5 |
| 20260502115051 | 51 | 234 | 0.0 | 0.0 | 0.00 | 0.00 | 0.00 | 99 | 1017.5 |
| 20260502114548 | 51 | 234 | 0.0 | 0.0 | 0.00 | 0.00 | 0.00 | 99 | 1017.5 |
| 20260502114045 | 51 | 234 | 0.0 | 0.0 | 0.00 | 0.00 | 0.00 | 99 | 1017.3 |
| 20260502114004 | 51 | 234 | 0.0 | 0.0 | 0.00 | 0.00 | 0.00 | 99 | 1021.9 |
| 20260502113542 | 51 | 234 | 0.0 | 0.0 | 0.00 | 0.00 | 0.00 | 99 | 1017.4 |
| 20260502113041 | 51 | 234 | 0.0 | 0.0 | 0.00 | 0.00 | 0.00 | 99 | 1017.2 |
| 20260502113004 | 51 | 235 | 0.0 | 0.0 | 0.00 | 0.00 | 0.00 | 99 | 1021.8 |
| 20260502112538 | 52 | 242 | 0.0 | 0.0 | 0.00 | 0.00 | 0.00 | 99 | 1017.3 |
| 20260502112036 | 52 | 238 | 0.0 | 0.0 | 0.00 | 0.00 | 0.00 | 99 | 1017.0 |
| 20260502111533 | 52 | 241 | 0.0 | 0.0 | 0.00 | 0.00 | 0.00 | 99 | 1016.9 |
| 20260502111503 | 52 | 237 | 0.0 | 0.0 | 0.00 | 0.00 | 0.00 | 99 | 1021.5 |
| 20260502111030 | 52 | 239 | 0.0 | 0.0 | 0.00 | 0.00 | 0.00 | 99 | 1016.8 |
| 20260502110527 | 52 | 239 | 0.0 | 0.0 | 0.00 | 0.00 | 0.00 | 99 | 1017.0 |
| 20260502110503 | 52 | 239 | 0.0 | 0.0 | 0.00 | 0.00 | 0.00 | 99 | 1021.5 |
| 20260502110025 | 52 | 239 | 0.0 | 0.0 | 0.00 | 0.00 | 0.00 | 99 | 1016.7 |
| 20260502110004 | 52 | 239 | 0.0 | 0.0 | 0.00 | 0.00 | 0.00 | 99 | 1021.2 |
| 20260502105522 | 52 | 239 | 0.0 | 0.0 | 0.00 | 0.00 | 0.00 | 99 | 1016.7 |
| 20260502105020 | 52 | 239 | 0.0 | 0.0 | 0.00 | 0.00 | 0.00 | 99 | 1016.7 |
| 20260502104516 | 52 | 239 | 0.0 | 0.0 | 0.00 | 0.00 | 0.00 | 99 | 1016.5 |
| 20260502104504 | 52 | 239 | 0.0 | 0.0 | 0.00 | 0.00 | 0.00 | 99 | 1021.1 |
| 20260502104014 | 52 | 239 | 0.0 | 0.0 | 0.00 | 0.00 | 0.00 | 99 | 1016.4 |
| 20260502103512 | 52 | 239 | 0.0 | 0.0 | 0.00 | 0.00 | 0.00 | 99 | 1016.6 |
| 20260502103504 | 52 | 239 | 0.0 | 0.0 | 0.00 | 0.00 | 0.00 | 99 | 1021.1 |
| 20260502103010 | 52 | 239 | 0.0 | 0.0 | 0.00 | 0.00 | 0.00 | 99 | 1016.5 |
| 20260502103004 | 52 | 239 | 0.0 | 0.0 | 0.00 | 0.00 | 0.00 | 99 | 1021.1 |
| 20260502102506 | 52 | 239 | 0.0 | 0.0 | 0.00 | 0.00 | 0.00 | 99 | 1016.3 |
| 20260502102003 | 52 | 239 | 0.0 | 0.0 | 0.00 | 0.00 | 0.00 | 99 | 1016.4 |
| 20260502101504 | 52 | 239 | 0.0 | 0.0 | 0.00 | 0.00 | 0.00 | 99 | 1021.0 |
| 20260502101501 | 52 | 239 | 0.0 | 0.0 | 0.00 | 0.00 | 0.00 | 99 | 1016.5 |
| 20260502101004 | 52 | 239 | 0.0 | 0.0 | 0.00 | 0.00 | 0.00 | 99 | 1021.2 |
| 20260502100959 | 52 | 239 | 0.0 | 0.0 | 0.00 | 0.00 | 0.00 | 99 | 1016.3 |
| 20260502100504 | 52 | 239 | 0.0 | 0.0 | 0.00 | 0.00 | 0.00 | 99 | 1020.8 |
| 20260502100457 | 52 | 239 | 0.0 | 0.0 | 0.00 | 0.00 | 0.00 | 99 | 1016.3 |
| 20260502091503 | 52 | 239 | 0.0 | 0.0 | 0.00 | 0.00 | 0.00 | 99 | 1020.6 |
| 20260502091432 | 52 | 239 | 0.0 | 0.0 | 0.00 | 0.00 | 0.00 | 99 | 1016.1 |
| 20260502091004 | 53 | 240 | 0.0 | 0.0 | 0.00 | 0.00 | 0.00 | 99 | 1020.7 |
| 20260502090928 | 53 | 240 | 0.0 | 0.0 | 0.00 | 0.00 | 0.00 | 99 | 1016.3 |
| 20260502090504 | 53 | 344 | 0.0 | 0.0 | 0.00 | 0.00 | 0.00 | 99 | 1020.7 |
| 20260502090426 | 53 | 344 | 0.0 | 0.0 | 0.00 | 0.00 | 0.00 | 99 | 1016.2 |
| 20260502071504 | 53 | 284 | 0.0 | 0.0 | 0.00 | 0.00 | 0.00 | 99 | 1020.8 |
| 20260502071320 | 53 | 284 | 0.0 | 0.0 | 0.00 | 0.00 | 0.00 | 99 | 1016.0 |
| 20260502070818 | 53 | 284 | 0.0 | 0.0 | 0.00 | 0.00 | 0.00 | 99 | 1016.2 |
| 20260502070504 | 53 | 284 | 0.0 | 0.0 | 0.00 | 0.00 | 0.00 | 99 | 1020.6 |
| 20260502070315 | 53 | 283 | 0.0 | 0.0 | 0.00 | 0.00 | 0.00 | 99 | 1016.1 |
| 20260502065815 | 53 | 284 | 0.0 | 0.0 | 0.00 | 0.00 | 0.00 | 99 | 1016.1 |
| 20260502065313 | 53 | 285 | 0.0 | 0.0 | 0.00 | 0.00 | 0.00 | 99 | 1016.2 |
| 20260502064810 | 54 | 284 | 0.0 | 0.0 | 0.00 | 0.00 | 0.00 | 99 | 1016.2 |
| 20260502064504 | 54 | 284 | 0.0 | 0.0 | 0.00 | 0.00 | 0.00 | 99 | 1020.8 |
| 20260502064308 | 54 | 285 | 0.0 | 0.0 | 0.00 | 0.00 | 0.00 | 99 | 1016.0 |
| 20260502063805 | 54 | 284 | 0.0 | 0.0 | 0.00 | 0.00 | 0.00 | 99 | 1016.1 |
| 20260502063504 | 54 | 284 | 0.0 | 0.0 | 0.00 | 0.00 | 0.00 | 99 | 1020.6 |
| 20260502063303 | 54 | 284 | 0.0 | 0.0 | 0.00 | 0.00 | 0.00 | 99 | 1015.7 |
| 20260502063004 | 54 | 285 | 0.0 | 0.0 | 0.00 | 0.00 | 0.00 | 99 | 1020.7 |
| 20260502062759 | 53 | 285 | 0.0 | 0.0 | 0.00 | 0.00 | 0.00 | 99 | 1016.0 |
| 20260502062257 | 54 | 285 | 0.0 | 0.0 | 0.00 | 0.00 | 0.00 | 99 | 1016.0 |
| 20260502061756 | 54 | 285 | 0.0 | 0.0 | 0.00 | 0.00 | 0.00 | 99 | 1016.0 |
| 20260502061504 | 54 | 285 | 0.0 | 0.0 | 0.00 | 0.00 | 0.00 | 99 | 1020.5 |
| 20260502061253 | 54 | 259 | 0.0 | 0.0 | 0.00 | 0.00 | 0.00 | 99 | 1016.1 |
| 20260502061004 | 54 | 289 | 0.0 | 0.0 | 0.00 | 0.00 | 0.00 | 99 | 1020.6 |
| 20260502060753 | 54 | 264 | 0.0 | 0.0 | 0.00 | 0.00 | 0.00 | 99 | 1016.0 |
| 20260502060504 | 54 | 264 | 0.0 | 0.0 | 0.00 | 0.00 | 0.00 | 99 | 1020.6 |
| 20260502060249 | 54 | 265 | 0.0 | 0.0 | 0.00 | 0.00 | 0.00 | 99 | 1015.9 |
| 20260502060004 | 54 | 265 | 0.0 | 0.0 | 0.00 | 0.00 | 0.00 | 99 | 1020.6 |
| 20260502055747 | 54 | 265 | 0.0 | 0.0 | 0.00 | 0.00 | 0.00 | 99 | 1016.2 |
| 20260502055244 | 54 | 265 | 0.0 | 0.0 | 0.00 | 0.00 | 0.00 | 99 | 1016.0 |
| 20260502054744 | 54 | 264 | 0.0 | 0.0 | 0.00 | 0.00 | 0.00 | 99 | 1015.8 |
| 20260502054504 | 54 | 264 | 0.0 | 0.0 | 0.00 | 0.00 | 0.00 | 99 | 1020.4 |
| 20260502054241 | 54 | 264 | 0.0 | 0.0 | 0.00 | 0.00 | 0.00 | 99 | 1015.9 |
| 20260502054004 | 54 | 264 | 0.0 | 0.0 | 0.00 | 0.00 | 0.00 | 99 | 1020.3 |
| 20260502053738 | 54 | 264 | 0.0 | 0.0 | 0.00 | 0.00 | 0.00 | 99 | 1015.9 |
| 20260502053504 | 54 | 264 | 0.0 | 0.0 | 0.00 | 0.00 | 0.00 | 99 | 1020.3 |
| 20260502053235 | 54 | 264 | 0.0 | 0.0 | 0.00 | 0.00 | 0.00 | 99 | 1015.6 |
| 20260502053004 | 54 | 264 | 0.0 | 0.0 | 0.00 | 0.00 | 0.00 | 99 | 1020.3 |
| 20260502052733 | 54 | 264 | 0.0 | 0.0 | 0.00 | 0.00 | 0.00 | 99 | 1015.7 |
| 20260502052231 | 54 | 264 | 0.0 | 0.0 | 0.00 | 0.00 | 0.00 | 99 | 1016.0 |
| 20260502051729 | 54 | 264 | 0.0 | 0.0 | 0.00 | 0.00 | 0.00 | 99 | 1015.9 |
| 20260502051503 | 54 | 263 | 0.0 | 0.0 | 0.00 | 0.00 | 0.00 | 99 | 1020.5 |
| 20260502051227 | 54 | 263 | 0.0 | 0.0 | 0.00 | 0.00 | 0.00 | 99 | 1015.9 |
| 20260502051004 | 54 | 263 | 0.0 | 0.0 | 0.00 | 0.00 | 0.00 | 99 | 1020.5 |
| 20260502050723 | 54 | 263 | 0.0 | 0.0 | 0.00 | 0.00 | 0.00 | 99 | 1015.7 |
| 20260502050504 | 54 | 263 | 0.0 | 0.0 | 0.00 | 0.00 | 0.00 | 99 | 1020.3 |
| 20260502050219 | 54 | 263 | 0.0 | 0.0 | 0.00 | 0.00 | 0.00 | 99 | 1015.8 |
| 20260502050004 | 54 | 263 | 0.0 | 0.0 | 0.00 | 0.01 | 0.00 | 99 | 1020.3 |
| 20260502045716 | 54 | 263 | 0.0 | 0.0 | 0.00 | 0.00 | 0.00 | 99 | 1015.8 |
| 20260502045213 | 54 | 264 | 0.0 | 0.0 | 0.00 | 0.00 | 0.00 | 99 | 1016.2 |
| 20260502044710 | 54 | 264 | 0.0 | 0.0 | 0.00 | 0.00 | 0.00 | 99 | 1015.9 |
| 20260502044504 | 54 | 264 | 0.0 | 0.0 | 0.00 | 0.01 | 0.00 | 99 | 1020.6 |
| 20260502044206 | 54 | 264 | 0.0 | 0.0 | 0.00 | 0.00 | 0.00 | 99 | 1015.9 |
| 20260502044003 | 54 | 264 | 0.0 | 0.0 | 0.00 | 0.01 | 0.00 | 99 | 1020.4 |
| 20260502043704 | 54 | 264 | 0.0 | 0.0 | 0.00 | 0.00 | 0.00 | 99 | 1016.1 |
| 20260502043503 | 54 | 264 | 0.0 | 0.0 | 0.00 | 0.01 | 0.00 | 99 | 1020.5 |
| 20260502043201 | 54 | 264 | 0.0 | 0.0 | 0.00 | 0.00 | 0.00 | 99 | 1016.2 |
| 20260502043004 | 54 | 264 | 0.0 | 0.0 | 0.00 | 0.01 | 0.00 | 99 | 1020.5 |
| 20260502042700 | 54 | 264 | 0.0 | 0.0 | 0.00 | 0.00 | 0.00 | 99 | 1016.1 |
| 20260502042158 | 54 | 264 | 0.0 | 0.0 | 0.00 | 0.00 | 0.00 | 99 | 1016.1 |
| 20260502041655 | 54 | 264 | 0.0 | 0.0 | 0.00 | 0.00 | 0.00 | 99 | 1016.0 |
| 20260502041504 | 54 | 264 | 0.0 | 0.0 | 0.00 | 0.01 | 0.00 | 99 | 1020.6 |
| 20260502041153 | 54 | 264 | 0.0 | 0.0 | 0.00 | 0.00 | 0.00 | 99 | 1016.1 |
| 20260502040649 | 54 | 264 | 0.0 | 0.0 | 0.00 | 0.00 | 0.00 | 99 | 1016.1 |
| 20260502040503 | 54 | 264 | 0.0 | 0.0 | 0.00 | 0.01 | 0.00 | 99 | 1020.5 |
| 20260502040147 | 54 | 264 | 0.0 | 0.0 | 0.00 | 0.00 | 0.00 | 99 | 1015.9 |
| 20260502035643 | 54 | 272 | 0.0 | 0.0 | 0.00 | 0.00 | 0.00 | 99 | 1015.9 |
| 20260502035139 | 54 | 283 | 0.0 | 0.0 | 0.00 | 0.00 | 0.00 | 99 | 1015.9 |
| 20260502034638 | 54 | 279 | 0.0 | 0.0 | 0.00 | 0.00 | 0.00 | 99 | 1015.9 |
| 20260502034504 | 54 | 267 | 0.0 | 1.0 | 0.00 | 0.01 | 0.00 | 99 | 1020.2 |
| 20260502034136 | 54 | 132 | 0.0 | 0.0 | 0.00 | 0.00 | 0.00 | 99 | 1016.0 |
| 20260502034004 | 54 | 357 | 0.0 | 0.0 | 0.00 | 0.01 | 0.00 | 99 | 1020.6 |
| 20260502033633 | 54 | 16 | 0.0 | 0.0 | 0.00 | 0.00 | 0.00 | 99 | 1015.9 |
| 20260502033503 | 54 | 345 | 0.0 | 1.0 | 0.00 | 0.01 | 0.00 | 99 | 1020.6 |
| 20260502033131 | 53 | 302 | 0.0 | 0.0 | 0.00 | 0.00 | 0.00 | 99 | 1016.1 |
| 20260502033004 | 53 | 235 | 0.0 | 1.0 | 0.00 | 0.01 | 0.00 | 99 | 1020.6 |
| 20260502032626 | 53 | 195 | 0.0 | 0.0 | 0.00 | 0.00 | 0.00 | 99 | 1016.3 |
| 20260502032123 | 53 | 201 | 0.0 | 0.0 | 0.00 | 0.00 | 0.00 | 99 | 1016.1 |
| 20260502031621 | 53 | 270 | 0.0 | 0.0 | 0.00 | 0.00 | 0.00 | 99 | 1016.5 |
| 20260502031503 | 53 | 270 | 0.0 | 0.0 | 0.00 | 0.01 | 0.00 | 99 | 1020.9 |
| 20260502031119 | 53 | 270 | 0.0 | 0.0 | 0.00 | 0.00 | 0.00 | 99 | 1016.3 |
| 20260502031003 | 53 | 270 | 0.0 | 0.0 | 0.00 | 0.01 | 0.00 | 99 | 1020.9 |
| 20260502030618 | 53 | 270 | 0.0 | 0.0 | 0.00 | 0.00 | 0.00 | 99 | 1016.6 |
| 20260502030503 | 53 | 270 | 0.0 | 0.0 | 0.00 | 0.01 | 0.00 | 99 | 1021.0 |
| 20260502030115 | 53 | 270 | 0.0 | 0.0 | 0.00 | 0.00 | 0.00 | 99 | 1016.2 |
| 20260502030003 | 53 | 270 | 0.0 | 0.0 | 0.00 | 0.01 | 0.00 | 99 | 1020.7 |
| 20260502025612 | 53 | 287 | 0.0 | 0.0 | 0.00 | 0.00 | 0.00 | 99 | 1016.2 |
| 20260502025110 | 53 | 260 | 0.0 | 0.0 | 0.00 | 0.00 | 0.00 | 99 | 1016.0 |
| 20260502024608 | 53 | 258 | 0.0 | 0.0 | 0.00 | 0.00 | 0.00 | 99 | 1015.9 |
| 20260502024503 | 53 | 258 | 0.0 | 0.0 | 0.00 | 0.01 | 0.00 | 99 | 1020.2 |
| 20260502024106 | 53 | 258 | 0.0 | 0.0 | 0.00 | 0.00 | 0.00 | 99 | 1015.7 |
| 20260502024003 | 53 | 258 | 0.0 | 0.0 | 0.00 | 0.01 | 0.00 | 99 | 1020.3 |
| 20260502023603 | 53 | 258 | 0.0 | 0.0 | 0.00 | 0.00 | 0.00 | 99 | 1015.6 |
| 20260502023504 | 53 | 248 | 0.0 | 0.0 | 0.00 | 0.01 | 0.00 | 99 | 1019.9 |
| 20260502023100 | 53 | 248 | 0.0 | 0.0 | 0.00 | 0.00 | 0.00 | 99 | 1015.5 |
| 20260502023003 | 53 | 247 | 0.0 | 0.0 | 0.00 | 0.01 | 0.00 | 99 | 1020.1 |
| 20260502022556 | 53 | 280 | 0.0 | 0.0 | 0.00 | 0.00 | 0.00 | 99 | 1015.5 |
| 20260502022054 | 53 | 268 | 0.0 | 0.0 | 0.00 | 0.00 | 0.00 | 99 | 1015.7 |
| 20260502021551 | 53 | 261 | 0.0 | 0.0 | 0.00 | 0.00 | 0.00 | 99 | 1015.8 |
| 20260502021504 | 53 | 262 | 0.0 | 0.0 | 0.00 | 0.01 | 0.00 | 99 | 1020.2 |
| 20260502021048 | 53 | 207 | 0.0 | 0.0 | 0.00 | 0.00 | 0.00 | 99 | 1016.0 |
| 20260502021004 | 53 | 207 | 0.0 | 0.0 | 0.00 | 0.01 | 0.00 | 99 | 1020.6 |
| 20260502020546 | 53 | 193 | 0.0 | 0.0 | 0.00 | 0.00 | 0.00 | 99 | 1016.0 |
| 20260502020042 | 53 | 226 | 0.0 | 0.0 | 0.00 | 0.00 | 0.00 | 99 | 1015.8 |
| 20260502020004 | 53 | 226 | 0.0 | 0.0 | 0.00 | 0.01 | 0.00 | 99 | 1020.4 |
| 20260502015540 | 53 | 225 | 0.0 | 0.0 | 0.00 | 0.00 | 0.00 | 99 | 1015.8 |
| 20260502015036 | 53 | 221 | 0.0 | 0.0 | 0.00 | 0.00 | 0.00 | 99 | 1015.6 |
| 20260502014534 | 53 | 216 | 0.0 | 0.0 | 0.00 | 0.00 | 0.00 | 99 | 1015.5 |
| 20260502014504 | 53 | 205 | 0.0 | 0.0 | 0.00 | 0.01 | 0.00 | 99 | 1019.8 |
| 20260502014031 | 53 | 205 | 0.0 | 0.0 | 0.00 | 0.00 | 0.00 | 99 | 1015.0 |
| 20260502014004 | 53 | 200 | 0.0 | 0.0 | 0.00 | 0.01 | 0.00 | 99 | 1019.8 |
| 20260502013526 | 53 | 164 | 0.0 | 0.0 | 0.00 | 0.00 | 0.00 | 99 | 1015.2 |
| 20260502013503 | 53 | 227 | 0.0 | 0.0 | 0.00 | 0.01 | 0.00 | 99 | 1019.7 |
| 20260502013022 | 53 | 239 | 0.0 | 0.0 | 0.00 | 0.00 | 0.00 | 99 | 1015.4 |
| 20260502012520 | 53 | 240 | 0.0 | 0.0 | 0.00 | 0.00 | 0.00 | 99 | 1015.6 |
| 20260502012018 | 53 | 239 | 0.0 | 0.0 | 0.00 | 0.00 | 0.00 | 99 | 1015.1 |
| 20260502011514 | 52 | 240 | 0.0 | 0.0 | 0.00 | 0.00 | 0.00 | 99 | 1015.0 |
| 20260502011504 | 52 | 233 | 0.0 | 1.0 | 0.00 | 0.01 | 0.00 | 99 | 1019.3 |
| 20260502011010 | 52 | 310 | 0.0 | 1.0 | 0.00 | 0.00 | 0.00 | 99 | 1014.2 |
| 20260502011004 | 52 | 1 | 1.0 | 2.0 | 0.00 | 0.01 | 0.00 | 99 | 1018.8 |
| 20260502010508 | 52 | 304 | 0.0 | 0.0 | 0.00 | 0.00 | 0.00 | 99 | 1014.4 |
| 20260502010504 | 52 | 311 | 0.0 | 0.0 | 0.00 | 0.01 | 0.00 | 99 | 1019.0 |
| 20260502010004 | 52 | 232 | 0.0 | 0.0 | 0.00 | 0.01 | 0.00 | 99 | 1019.1 |
| 20260502005502 | 52 | 254 | 0.0 | 0.0 | 0.00 | 0.00 | 0.00 | 99 | 1014.4 |
| 20260502004959 | 52 | 277 | 0.0 | 0.0 | 0.00 | 0.00 | 0.00 | 99 | 1014.1 |
| 20260502004503 | 52 | 287 | 0.0 | 3.0 | 0.00 | 0.01 | 0.00 | 99 | 1018.8 |
| 20260502004455 | 52 | 295 | 0.0 | 0.0 | 0.00 | 0.00 | 0.00 | 99 | 1014.3 |
| 20260502004004 | 52 | 166 | 0.0 | 2.0 | 0.00 | 0.01 | 0.00 | 99 | 1019.0 |
| 20260502003952 | 52 | 16 | 1.0 | 1.0 | 0.00 | 0.00 | 0.00 | 99 | 1014.3 |
| 20260502003504 | 52 | 333 | 1.0 | 3.0 | 0.00 | 0.01 | 0.00 | 99 | 1018.7 |
| 20260502003449 | 52 | 321 | 1.0 | 2.0 | 0.00 | 0.00 | 0.00 | 99 | 1014.2 |
| 20260502002945 | 52 | 296 | 0.0 | 0.0 | 0.00 | 0.00 | 0.00 | 99 | 1014.2 |
| 20260502002443 | 52 | 287 | 0.0 | 0.0 | 0.00 | 0.00 | 0.00 | 99 | 1014.1 |
| 20260502001941 | 52 | 310 | 3.0 | 5.0 | 0.00 | 0.00 | 0.00 | 99 | 1014.1 |
| 20260502001504 | 52 | 320 | 2.0 | 5.0 | 0.00 | 0.01 | 0.00 | 99 | 1018.5 |
| 20260502001438 | 52 | 299 | 2.0 | 2.0 | 0.00 | 0.00 | 0.00 | 99 | 1014.1 |
| 20260502000935 | 52 | 255 | 1.0 | 1.0 | 0.00 | 0.00 | 0.00 | 99 | 1013.9 |
| 20260502000434 | 52 | 26 | 2.0 | 2.0 | 0.00 | 0.00 | 0.00 | 99 | 1013.9 |
| 20260502000004 | 52 | 347 | 1.0 | 6.0 | 0.00 | 0.01 | 0.00 | 99 | 1018.8 |
| 20260501235929 | 52 | 17 | 2.0 | 2.0 | 0.00 | 0.00 | 0.00 | 99 | 1014.1 |
| 20260501235425 | 52 | 297 | 0.0 | 0.0 | 0.00 | 0.00 | 0.00 | 99 | 1014.1 |
| 20260501234921 | 52 | 286 | 0.0 | 1.0 | 0.00 | 0.00 | 0.00 | 99 | 1014.0 |
| 20260501234504 | 52 | 12 | 1.0 | 3.0 | 0.00 | 0.01 | 0.00 | 99 | 1018.4 |
| 20260501234418 | 52 | 13 | 0.0 | 1.0 | 0.00 | 0.00 | 0.00 | 99 | 1013.9 |
| 20260501234004 | 52 | 348 | 2.0 | 5.0 | 0.00 | 0.01 | 0.00 | 99 | 1018.4 |
| 20260501233916 | 52 | 344 | 4.0 | 5.0 | 0.00 | 0.00 | 0.00 | 99 | 1013.9 |
| 20260501233504 | 52 | 52 | 2.0 | 6.0 | 0.00 | 0.01 | 0.00 | 99 | 1018.1 |
| 20260501233413 | 52 | 13 | 1.0 | 2.0 | 0.00 | 0.00 | 0.00 | 99 | 1013.7 |
| 20260501233004 | 52 | 319 | 1.0 | 6.0 | 0.00 | 0.01 | 0.00 | 99 | 1018.3 |
| 20260501232909 | 52 | 337 | 0.0 | 1.0 | 0.00 | 0.00 | 0.00 | 99 | 1013.8 |
| 20260501232406 | 52 | 252 | 0.0 | 0.0 | 0.00 | 0.00 | 0.00 | 99 | 1013.8 |
| 20260501231903 | 52 | 269 | 1.0 | 1.0 | 0.00 | 0.00 | 0.00 | 99 | 1013.7 |
| 20260501231401 | 52 | 219 | 0.0 | 0.0 | 0.00 | 0.00 | 0.00 | 99 | 1014.2 |
| 20260501231004 | 52 | 15 | 2.0 | 3.0 | 0.00 | 0.01 | 0.00 | 99 | 1018.7 |
| 20260501230900 | 52 | 25 | 2.0 | 2.0 | 0.00 | 0.00 | 0.00 | 99 | 1014.2 |
| 20260501230504 | 52 | 289 | 1.0 | 3.0 | 0.00 | 0.01 | 0.00 | 99 | 1018.8 |
| 20260501230358 | 52 | 285 | 1.0 | 1.0 | 0.00 | 0.00 | 0.00 | 99 | 1014.3 |
| 20260501230003 | 52 | 248 | 1.0 | 6.0 | 0.00 | 0.01 | 0.00 | 99 | 1018.5 |
| 20260501225855 | 52 | 237 | 1.0 | 1.0 | 0.00 | 0.00 | 0.00 | 99 | 1013.9 |
| 20260501225353 | 53 | 6 | 1.0 | 1.0 | 0.00 | 0.00 | 0.00 | 99 | 1013.7 |
| 20260501224848 | 52 | 3 | 3.0 | 5.0 | 0.00 | 0.00 | 0.00 | 99 | 1013.6 |
| 20260501224346 | 53 | 1 | 1.0 | 1.0 | 0.00 | 0.00 | 0.00 | 99 | 1013.7 |
| 20260501223842 | 52 | 17 | 2.0 | 2.0 | 0.00 | 0.00 | 0.00 | 99 | 1013.4 |
| 20260501223504 | 52 | 6 | 1.0 | 6.0 | 0.00 | 0.01 | 0.00 | 99 | 1018.0 |
| 20260501223339 | 52 | 353 | 2.0 | 2.0 | 0.00 | 0.00 | 0.00 | 99 | 1013.5 |
| 20260501223004 | 52 | 2 | 1.0 | 6.0 | 0.00 | 0.01 | 0.00 | 99 | 1018.3 |
| 20260501222834 | 52 | 283 | 1.0 | 1.0 | 0.00 | 0.00 | 0.00 | 99 | 1013.8 |
| 20260501222333 | 53 | 167 | 0.0 | 0.0 | 0.00 | 0.00 | 0.00 | 99 | 1014.1 |
| 20260501221829 | 53 | 353 | 4.0 | 6.0 | 0.00 | 0.00 | 0.00 | 99 | 1013.9 |
| 20260501221504 | 53 | 17 | 2.0 | 5.0 | 0.00 | 0.01 | 0.00 | 99 | 1017.9 |
| 20260501221326 | 53 | 3 | 3.0 | 5.0 | 0.00 | 0.00 | 0.00 | 99 | 1013.4 |
| 20260501221004 | 53 | 0 | 1.0 | 3.0 | 0.00 | 0.01 | 0.00 | 99 | 1017.7 |
| 20260501220824 | 53 | 6 | 0.0 | 1.0 | 0.00 | 0.00 | 0.00 | 99 | 1013.4 |
| 20260501220503 | 53 | 349 | 0.0 | 1.0 | 0.00 | 0.01 | 0.00 | 99 | 1017.9 |
| 20260501220321 | 53 | 297 | 0.0 | 1.0 | 0.00 | 0.00 | 0.00 | 99 | 1013.6 |
| 20260501220003 | 53 | 333 | 1.0 | 3.0 | 0.00 | 0.01 | 0.00 | 99 | 1018.0 |
| 20260501215818 | 53 | 333 | 1.0 | 1.0 | 0.00 | 0.00 | 0.00 | 99 | 1013.6 |
| 20260501215314 | 53 | 271 | 0.0 | 0.0 | 0.00 | 0.00 | 0.00 | 99 | 1013.4 |
| 20260501214809 | 53 | 237 | 0.0 | 0.0 | 0.00 | 0.00 | 0.00 | 99 | 1013.3 |
| 20260501214504 | 53 | 259 | 0.0 | 2.0 | 0.00 | 0.01 | 0.00 | 99 | 1017.6 |
| 20260501214305 | 53 | 21 | 1.0 | 2.0 | 0.00 | 0.00 | 0.00 | 99 | 1013.0 |
| 20260501214004 | 53 | 301 | 1.0 | 1.0 | 0.00 | 0.01 | 0.00 | 99 | 1017.5 |
| 20260501213801 | 53 | 344 | 1.0 | 1.0 | 0.00 | 0.00 | 0.00 | 99 | 1013.0 |
| 20260501213504 | 53 | 14 | 0.0 | 2.0 | 0.00 | 0.01 | 0.00 | 99 | 1017.6 |
| 20260501213257 | 53 | 36 | 0.0 | 0.0 | 0.00 | 0.00 | 0.00 | 99 | 1013.0 |
| 20260501213004 | 53 | 336 | 1.0 | 5.0 | 0.00 | 0.01 | 0.00 | 99 | 1017.4 |
| 20260501212753 | 53 | 10 | 1.0 | 1.0 | 0.00 | 0.00 | 0.00 | 99 | 1013.0 |
| 20260501212250 | 53 | 329 | 3.0 | 5.0 | 0.00 | 0.00 | 0.00 | 99 | 1013.1 |
| 20260501211748 | 53 | 36 | 1.0 | 1.0 | 0.00 | 0.00 | 0.00 | 99 | 1013.3 |
| 20260501211503 | 53 | 333 | 1.0 | 2.0 | 0.00 | 0.01 | 0.00 | 99 | 1017.9 |
| 20260501211244 | 53 | 316 | 1.0 | 1.0 | 0.00 | 0.00 | 0.00 | 99 | 1013.6 |
| 20260501211004 | 53 | 321 | 1.0 | 7.0 | 0.00 | 0.01 | 0.00 | 99 | 1017.9 |
| 20260501210742 | 53 | 253 | 0.0 | 0.0 | 0.00 | 0.00 | 0.00 | 99 | 1013.5 |
| 20260501210504 | 53 | 1 | 2.0 | 7.0 | 0.00 | 0.01 | 0.00 | 99 | 1018.0 |
| 20260501210238 | 53 | 300 | 1.0 | 2.0 | 0.00 | 0.00 | 0.00 | 99 | 1013.3 |
| 20260501205734 | 53 | 35 | 1.0 | 2.0 | 0.00 | 0.00 | 0.00 | 99 | 1013.2 |
| 20260501205231 | 53 | 356 | 1.0 | 1.0 | 0.00 | 0.00 | 0.00 | 99 | 1013.0 |
| 20260501204729 | 53 | 347 | 1.0 | 1.0 | 0.00 | 0.00 | 0.00 | 99 | 1012.8 |
| 20260501204505 | 53 | 3 | 2.0 | 5.0 | 0.00 | 0.01 | 0.00 | 99 | 1017.5 |
| 20260501204225 | 53 | 21 | 3.0 | 3.0 | 0.00 | 0.00 | 0.00 | 99 | 1013.1 |
| 20260501203721 | 53 | 351 | 0.0 | 0.0 | 0.00 | 0.00 | 0.00 | 99 | 1013.0 |
| 20260501203504 | 53 | 19 | 2.0 | 5.0 | 0.00 | 0.01 | 0.00 | 99 | 1017.4 |
| 20260501203219 | 53 | 6 | 3.0 | 5.0 | 0.00 | 0.00 | 0.00 | 99 | 1012.8 |
| 20260501203004 | 53 | 341 | 2.0 | 6.0 | 0.00 | 0.01 | 0.00 | 99 | 1017.1 |
| 20260501202716 | 53 | 24 | 3.0 | 5.0 | 0.00 | 0.00 | 0.00 | 99 | 1012.7 |
| 20260501202213 | 53 | 0 | 3.0 | 6.0 | 0.00 | 0.00 | 0.00 | 99 | 1012.4 |
| 20260501201709 | 53 | 24 | 3.0 | 3.0 | 0.00 | 0.00 | 0.00 | 99 | 1012.2 |
| 20260501201504 | 53 | 11 | 1.0 | 6.0 | 0.00 | 0.01 | 0.00 | 99 | 1016.4 |
| 20260501201206 | 53 | 23 | 5.0 | 6.0 | 0.00 | 0.00 | 0.00 | 99 | 1011.7 |
| 20260501201004 | 53 | 356 | 2.0 | 3.0 | 0.00 | 0.01 | 0.00 | 99 | 1016.4 |
| 20260501200702 | 53 | 231 | 0.0 | 0.0 | 0.00 | 0.00 | 0.00 | 99 | 1011.9 |
| 20260501200504 | 53 | 267 | 1.0 | 8.0 | 0.00 | 0.01 | 0.00 | 99 | 1016.2 |
| 20260501200200 | 53 | 221 | 0.0 | 1.0 | 0.00 | 0.00 | 0.00 | 99 | 1011.7 |
| 20260501200004 | 53 | 330 | 2.0 | 10.0 | 0.00 | 0.01 | 0.00 | 99 | 1016.4 |
| 20260501195657 | 53 | 24 | 0.0 | 1.0 | 0.00 | 0.00 | 0.00 | 99 | 1011.8 |
| 20260501195153 | 53 | 292 | 1.0 | 1.0 | 0.00 | 0.00 | 0.00 | 99 | 1011.3 |
| 20260501194649 | 53 | 207 | 1.0 | 2.0 | 0.00 | 0.00 | 0.00 | 99 | 1011.0 |
| 20260501194144 | 53 | 16 | 3.0 | 5.0 | 0.00 | 0.00 | 0.00 | 99 | 1010.5 |
| 20260501194004 | 53 | 20 | 7.0 | 12.0 | 0.00 | 0.01 | 0.00 | 99 | 1015.3 |
| 20260501193642 | 54 | 132 | 1.0 | 2.0 | 0.00 | 0.00 | 0.00 | 99 | 1010.7 |
| 20260501193141 | 53 | 10 | 1.0 | 1.0 | 0.00 | 0.00 | 0.00 | 99 | 1011.2 |
| 20260501193004 | 53 | 343 | 2.0 | 7.0 | 0.00 | 0.01 | 0.00 | 99 | 1015.7 |
| 20260501192637 | 53 | 16 | 2.0 | 3.0 | 0.00 | 0.00 | 0.00 | 99 | 1011.3 |
| 20260501192135 | 53 | 306 | 3.0 | 6.0 | 0.00 | 0.00 | 0.00 | 99 | 1011.7 |
| 20260501191632 | 54 | 312 | 3.0 | 3.0 | 0.00 | 0.00 | 0.00 | 99 | 1011.9 |
| 20260501191504 | 53 | 350 | 1.0 | 6.0 | 0.00 | 0.01 | 0.00 | 99 | 1016.6 |
| 20260501191129 | 53 | 352 | 3.0 | 3.0 | 0.00 | 0.00 | 0.00 | 99 | 1011.9 |
| 20260501191004 | 53 | 342 | 2.0 | 6.0 | 0.00 | 0.01 | 0.00 | 99 | 1016.4 |
| 20260501190625 | 53 | 276 | 1.0 | 1.0 | 0.00 | 0.00 | 0.00 | 99 | 1012.2 |
| 20260501190504 | 53 | 344 | 3.0 | 9.0 | 0.00 | 0.01 | 0.00 | 99 | 1016.9 |
| 20260501190120 | 53 | 280 | 3.0 | 6.0 | 0.00 | 0.00 | 0.00 | 99 | 1012.3 |
| 20260501190004 | 53 | 336 | 2.0 | 7.0 | 0.00 | 0.01 | 0.00 | 99 | 1016.7 |
| 20260501185617 | 53 | 348 | 1.0 | 2.0 | 0.00 | 0.00 | 0.00 | 99 | 1013.0 |
| 20260501185112 | 53 | 348 | 4.0 | 7.0 | 0.00 | 0.00 | 0.00 | 99 | 1013.2 |
| 20260501184609 | 53 | 32 | 1.0 | 1.0 | 0.00 | 0.00 | 0.00 | 99 | 1013.2 |
| 20260501184504 | 53 | 210 | 1.0 | 3.0 | 0.00 | 0.01 | 0.00 | 99 | 1017.7 |
| 20260501184104 | 53 | 298 | 1.0 | 2.0 | 0.00 | 0.00 | 0.00 | 99 | 1013.3 |
| 20260501184004 | 53 | 0 | 3.0 | 6.0 | 0.00 | 0.01 | 0.00 | 99 | 1017.9 |
| 20260501183601 | 53 | 322 | 2.0 | 3.0 | 0.00 | 0.00 | 0.00 | 99 | 1013.4 |
| 20260501183503 | 53 | 334 | 1.0 | 3.0 | 0.00 | 0.02 | 0.00 | 99 | 1017.9 |
| 20260501183057 | 53 | 357 | 2.0 | 2.0 | 0.00 | 0.00 | 0.00 | 99 | 1013.6 |
| 20260501182554 | 53 | 10 | 1.0 | 5.0 | 0.00 | 0.00 | 0.00 | 99 | 1013.6 |
| 20260501182051 | 53 | 3 | 1.0 | 2.0 | 0.00 | 0.00 | 0.00 | 99 | 1013.8 |
| 20260501181548 | 53 | 295 | 1.0 | 2.0 | 0.00 | 0.00 | 0.00 | 99 | 1013.8 |
| 20260501181503 | 53 | 244 | 1.0 | 5.0 | 0.00 | 0.02 | 0.00 | 99 | 1018.2 |
| 20260501181045 | 53 | 216 | 0.0 | 0.0 | 0.00 | 0.00 | 0.00 | 99 | 1013.8 |
| 20260501181004 | 53 | 256 | 2.0 | 6.0 | 0.00 | 0.02 | 0.00 | 99 | 1018.3 |
| 20260501180543 | 53 | 165 | 1.0 | 2.0 | 0.00 | 0.00 | 0.00 | 99 | 1013.8 |
| 20260501180504 | 53 | 347 | 2.0 | 6.0 | 0.00 | 0.02 | 0.00 | 99 | 1018.6 |
| 20260501180038 | 52 | 293 | 0.0 | 0.0 | 0.00 | 0.00 | 0.00 | 99 | 1014.3 |
| 20260501180005 | 52 | 322 | 2.0 | 8.0 | 0.00 | 0.02 | 0.00 | 99 | 1019.1 |
| 20260501175535 | 53 | 269 | 2.0 | 2.0 | 0.00 | 0.00 | 0.00 | 99 | 1014.9 |
| 20260501175032 | 53 | 15 | 2.0 | 2.0 | 0.00 | 0.00 | 0.00 | 99 | 1015.1 |
| 20260501174529 | 53 | 16 | 1.0 | 2.0 | 0.00 | 0.00 | 0.00 | 99 | 1014.8 |
| 20260501174504 | 53 | 22 | 2.0 | 5.0 | 0.00 | 0.02 | 0.00 | 99 | 1019.3 |
| 20260501174027 | 53 | 46 | 4.0 | 5.0 | 0.00 | 0.00 | 0.00 | 99 | 1015.2 |
| 20260501174004 | 53 | 39 | 2.0 | 3.0 | 0.00 | 0.02 | 0.00 | 99 | 1019.5 |
| 20260501173524 | 53 | 261 | 0.0 | 1.0 | 0.00 | 0.00 | 0.00 | 99 | 1014.9 |
| 20260501173504 | 53 | 290 | 1.0 | 3.0 | 0.00 | 0.02 | 0.00 | 99 | 1019.5 |
| 20260501173021 | 53 | 348 | 2.0 | 3.0 | 0.00 | 0.00 | 0.00 | 99 | 1015.1 |
| 20260501172516 | 53 | 9 | 4.0 | 6.0 | 0.00 | 0.00 | 0.00 | 99 | 1014.9 |
| 20260501172012 | 53 | 178 | 0.0 | 0.0 | 0.00 | 0.00 | 0.00 | 99 | 1015.2 |